Tracking 19795 objects as of 17-Jul-2019
HD Live streaming from Space Station
objects crossing your sky now

FLOCK 3S 1

Track FLOCK 3S 1 now!
10-day predictions
FLOCK 3S 1 is classified as:


NORAD ID: 43769
Int'l Code: 2018-099M
Perigee: 581.2 km
Apogee: 599.3 km
Inclination: 97.7 °
Period: 96.3 minutes
Semi major axis: 6961 km
RCS: Unknown
Launch date: December 3, 2018
Source: United States (US)
Launch site: AIR FORCE WESTERN TEST RANGE (AFWTR)
aabbcc
Your satellite tracking list
Your tracking list is empty




NASA's NSSDC Master Catalog

Two Line Element Set (TLE):
1 43769U 18099M   19198.82443306  .00000409  00000-0  42872-4 0  9994
2 43769  97.7398 270.1769 0013038 230.4199 129.5871 14.94759045 33770
Source of the keplerian elements: AFSPC